Weather History for Mount Holly, NJ

Change the Weather History Date:

Monday, April 22, 2013

  Actual Average (KWRI) Record (KWRI)
Temperature  
Mean Temperature 40 °F -  
Max Temperature 50 °F 63 °F 87 °F (2001)
Min Temperature 32 °F 41 °F 31 °F (2013)
Degree Days  
Heating Degree Days 25    
Moisture  
Dew Point 33 °F    
Average Humidity 69    
Maximum Humidity 89    
Minimum Humidity 52    
Precipitation  
Precipitation 0.00 in - - ()
Sea Level Pressure  
Sea Level Pressure 30.55 in    
Wind  
Wind Speed 6 mph (ENE)    
Max Wind Speed 16 mph    
Max Gust Speed 26 mph    
Visibility 10 miles    
Events      
Averages and records for this station are not official NWS values.
T = Trace of Precipitation, MM = Missing Value Source: NWS Daily Summary

Daily Weather History Graph

Daily Weather History Graph

Search for Another Location

Airport:

Trip Planner

Search our weather history database for the weather conditions in past years. The results will help you decide how hot, cold, wet, or windy it might be!

Date:

Astronomy

Apr. 22, 2013 Rise Set
Actual Time 6:11 AM EDT 7:45 PM EDT
Civil Twilight 5:42 AM EDT 8:13 PM EDT
Nautical Twilight 5:08 AM EDT 8:48 PM EDT
Astronomical Twilight 4:31 AM EDT 9:24 PM EDT
Moon 4:31 PM EDT (4/22) 4:04 AM EDT (4/22)
Length of Visible Light 14h 31m
Length of Day
13h 33m
Waxing Gibbous, 87% of the Moon is Illuminated
Apr 22
Waxing Gibbous
Apr 25
Full
May 2
Last Quarter
May 9
New
May 18
First Quarter

Hourly Weather History & Observations

Time (EDT) Temp. Windchill Dew Point Humidity Pressure Visibility Wind Dir Wind Speed Gust Speed Precip Events Conditions
12:54 AM 34.0 °F - 28.9 °F 82% 30.62 in 10.0 mi Calm Calm - N/A   Clear
1:54 AM 34.0 °F - 30.0 °F 85% 30.61 in 10.0 mi Calm Calm - N/A   Clear
2:54 AM 33.1 °F - 30.0 °F 89% 30.60 in 10.0 mi Calm Calm - N/A   Clear
3:54 AM 33.1 °F - 30.0 °F 89% 30.59 in 10.0 mi Calm Calm - N/A   Clear
4:54 AM 32.0 °F - 28.9 °F 88% 30.61 in 10.0 mi Calm Calm - N/A   Clear
5:54 AM 33.1 °F - 28.9 °F 85% 30.60 in 10.0 mi Calm Calm - N/A   Clear
6:54 AM 35.1 °F - 30.9 °F 85% 30.60 in 10.0 mi Calm Calm - N/A   Clear
7:54 AM 41.0 °F 36.4 °F 33.1 °F 73% 30.60 in 10.0 mi NE 6.9 mph - N/A   Clear
8:54 AM 46.0 °F 39.9 °F 33.1 °F 61% 30.61 in 10.0 mi East 13.8 mph 19.6 mph N/A   Clear
9:54 AM 48.0 °F - 30.9 °F 52% 30.61 in 10.0 mi East 16.1 mph 21.9 mph N/A   Partly Cloudy
10:54 AM 48.9 °F - 33.1 °F 54% 30.60 in 10.0 mi ENE 13.8 mph 26.5 mph N/A   Scattered Clouds
11:54 AM 48.0 °F - 32.0 °F 54% 30.60 in 10.0 mi ENE 12.7 mph 21.9 mph N/A   Mostly Cloudy
12:54 PM 48.9 °F - 32.0 °F 52% 30.59 in 10.0 mi East 10.4 mph 21.9 mph N/A   Overcast
1:54 PM 48.0 °F - 33.1 °F 56% 30.57 in 10.0 mi East 10.4 mph 19.6 mph N/A   Overcast
2:54 PM 48.9 °F - 34.0 °F 56% 30.56 in 10.0 mi ENE 12.7 mph 18.4 mph N/A   Overcast
3:54 PM 46.9 °F - 32.0 °F 56% 30.53 in 10.0 mi ENE 15.0 mph 23.0 mph N/A   Overcast
4:54 PM 48.0 °F - 32.0 °F 54% 30.52 in 10.0 mi East 12.7 mph 19.6 mph N/A   Overcast
5:54 PM 48.0 °F - 34.0 °F 58% 30.51 in 10.0 mi ENE 10.4 mph 17.3 mph N/A   Overcast
6:54 PM 46.9 °F - 35.1 °F 63% 30.49 in 10.0 mi East 10.4 mph - N/A   Overcast
7:05 PM 46.4 °F 41.9 °F 35.6 °F 66% 30.49 in 10.0 mi East 9.2 mph 19.6 mph N/A   Overcast
7:15 PM 46.4 °F 41.5 °F 35.6 °F 66% 30.49 in 10.0 mi East 10.4 mph 19.6 mph N/A   Overcast
7:54 PM 46.0 °F 43.1 °F 36.0 °F 68% 30.49 in 10.0 mi ENE 5.8 mph 16.1 mph N/A   Overcast
8:05 PM 46.4 °F 41.1 °F 35.6 °F 66% 30.49 in 10.0 mi ENE 11.5 mph 17.3 mph N/A   Overcast
8:54 PM 45.0 °F 39.3 °F 37.9 °F 76% 30.49 in 10.0 mi ENE 11.5 mph - N/A   Overcast
9:54 PM 45.0 °F 39.3 °F 37.9 °F 76% 30.49 in 10.0 mi East 11.5 mph 17.3 mph N/A   Overcast
10:54 PM 45.0 °F 40.1 °F 37.9 °F 76% 30.47 in 10.0 mi ENE 9.2 mph 19.6 mph N/A   Overcast
11:54 PM 45.0 °F 41.2 °F 37.9 °F 76% 30.46 in 10.0 mi ENE 6.9 mph 17.3 mph N/A   Overcast